QPF
0.00 0.00 0.00 0.00 0.00 0.00 0.00 0.00 0.00 0.00 0.00 0.00 0.00 0.00 0.00 0.00 0.00 0.00 0.00 0.00 0.00 0.00 0.00 0.00 0.00 0.00 0.00 0.00 0.00 0.00 0.00 0.00 0.00 0.00 0.00 0.00 0.00 0.00 0.00 0.00 0.00 0.00
0.00 0.00 0.00 0.00 0.00 0.00 0.00 0.00 0.00 0.00 0.00 0.00 0.00 0.00 0.00 0.00 0.00 0.00 0.00 0.00 0.00 0.00 0.00 0.00 0.00 0.00 0.00 0.00 0.00 0.00 0.00 0.00 0.00 0.00 0.00 0.00 0.00 0.00 0.00 0.00 0.00 0.00
0.00 0.00 0.00 0.00 0.00 0.00 0.00 0.00 0.00 0.00 0.00 0.00 0.00 0.00 0.00 0.00 0.00 0.00 0.00 0.00 0.00 0.00 0.00 0.00 0.00 0.00 0.00 0.00 0.00 0.00 0.00 0.00 0.00 0.00 0.00 0.00 0.00 0.00 0.00 0.00 0.00 0.00
0.00 0.00 0.00 0.00 0.00 0.00 0.00 0.00 0.00 0.00 0.00 0.00 0.00 0.00 0.00 0.00 0.00 0.00 0.00 0.00 0.00 0.00 0.00 0.00 0.00 0.00 0.00 0.00 0.00 0.00 0.00 0.00 0.00 0.00 0.00 0.00 0.00 0.00 0.00 0.00 0.00 0.00
0.00 0.00 0.00 0.00 0.00 0.00 0.00 0.00 0.00 0.00 0.00 0.00 0.00 0.00 0.00 0.00 0.00 0.00 0.00 0.00 0.00 0.00 0.00 0.00 0.00 0.00 0.00 0.00 0.00 0.00 0.00 0.00 0.00 0.00 0.00 0.00 0.00 0.00 0.00 0.00 0.00 0.00
0.00 0.00 0.00 0.00 0.00 0.00 0.00 0.00 0.00 0.00 0.00 0.00 0.00 0.00 0.00 0.00 0.00 0.00 0.00 0.00 0.00 0.00 0.00 0.00 0.00 0.00 0.00 0.00 0.00 0.00 0.00 0.00 0.00 0.00 0.00 0.00 0.00 0.00 0.00 0.00 0.00 0.00
0.00 0.00 0.00 0.00 0.00 0.00 0.00 0.00 0.00 0.00 0.00 0.00 0.00 0.00 0.00 0.00 0.00 0.00 0.00 0.00 0.00 0.00 0.00 0.00 0.00 0.00 0.00 0.00 0.00 0.00 0.00 0.00 0.00 0.00 0.00 0.00 0.00 0.00 0.00 0.00 0.00 0.00
0.00 0.00 0.00 0.00 0.00 0.00 0.00 0.00 0.00 0.00 0.00 0.00 0.00 0.00 0.00 0.00 0.00 0.00 0.00 0.00 0.00 0.00 0.00 0.00 0.00 0.00 0.00 0.00 0.00 0.00 0.00 0.00 0.00 0.00 0.00 0.00 0.00 0.00 0.00 0.00 0.00 0.00
0.00 0.00 0.00 0.00 0.00 0.00 0.00 0.00 0.00 0.00 0.00 0.00 0.00 0.00 0.00 0.00 0.00 0.00 0.00 0.00 0.00 0.00 0.00 0.00 0.00 0.00 0.00 0.00 0.00 0.00 0.00 0.00 0.00 0.00 0.00 0.00 0.00 0.00 0.00 0.00 0.00 0.00
0.00 0.00 0.00 0.00 0.00 0.00 0.00 0.00 0.00 0.00 0.00 0.00 0.00 0.00 0.00 0.00 0.00 0.00 0.00 0.00 0.00 0.00 0.00 0.00 0.00 0.00 0.00 0.00 0.00 0.00 0.00 0.00 0.00 0.00 0.00 0.00 0.00 0.00 0.00 0.00 0.00 0.00
0.00 0.00 0.00 0.00 0.00 0.00 0.00 0.00 0.00 0.00 0.00 0.00 0.00 0.00 0.00 0.00 0.00 0.00 0.00 0.00 0.00 0.00 0.00 0.00 0.00 0.00 0.00 0.00 0.00 0.00 0.00 0.00 0.00 0.00 0.00 0.00 0.00 0.00 0.00 0.00 0.00 0.00
0.00 0.00 0.00 0.00 0.00 0.00 0.00 0.00 0.00 0.00 0.00 0.00 0.00 0.00 0.00 0.00 0.00 0.00 0.00 0.00 0.00 0.00 0.00 0.00 0.00 0.00 0.00 0.00 0.00 0.00 0.00 0.00 0.00 0.00 0.00 0.00 0.00 0.00 0.00 0.00 0.00 0.00
0.00 0.00 0.00 0.00 0.00 0.00 0.00 0.00 0.00 0.00 0.00 0.00 0.00 0.00 0.00 0.00 0.00 0.00 0.00 0.00 0.00 0.00 0.00 0.00 0.00 0.00 0.00 0.00 0.00 0.00 0.00 0.00 0.00 0.00 0.00 0.00 0.00 0.00 0.00 0.00 0.00 0.00
0.00 0.00 0.00 0.00 0.00 0.00 0.00 0.00 0.00 0.00 0.00 0.00 0.00 0.00 0.00 0.00 0.00 0.00 0.00 0.00 0.00 0.00 0.00 0.00 0.00 0.00 0.00 0.00 0.00 0.00 0.00 0.00 0.00 0.00 0.00 0.00 0.00 0.00 0.00 0.00 0.00 0.00
0.00 0.00 0.00 0.00 0.00 0.00 0.00 0.00 0.00 0.00 0.00 0.00 0.00 0.00 0.00 0.00 0.00 0.00 0.00 0.00 0.00 0.00 0.00 0.00 0.00 0.00 0.00 0.00 0.00 0.00 0.00 0.00 0.00 0.00 0.00 0.00 0.00 0.00 0.00 0.00 0.00 0.00
0.00 0.00 0.00 0.00 0.00 0.00 0.00 0.00 0.00 0.00 0.00 0.00 0.00 0.00 0.00 0.00 0.00 0.00 0.00 0.00 0.00 0.00 0.00 0.00 0.00 0.00 0.00 0.00 0.00 0.00 0.00 0.00 0.00 0.00 0.00 0.00 0.00 0.00 0.00 0.00 0.00 0.00
0.00 0.00 0.00 0.00 0.00 0.00 0.00 0.00 0.00 0.00 0.00 0.00 0.00 0.00 0.00 0.00 0.00 0.00 0.00 0.00 0.00 0.00 0.00 0.00 0.00 0.00 0.00 0.00 0.00 0.00 0.00 0.00 0.00 0.00 0.00 0.00 0.00 0.00 0.00 0.00 0.00 0.00
0.00 0.00 0.00 0.00 0.00 0.00 0.00 0.00 0.00 0.00 0.00 0.00 0.00 0.00 0.00 0.00 0.00 0.00 0.00 0.00 0.00 0.00 0.00 0.00 0.00 0.00 0.00 0.00 0.00 0.00 0.00 0.00 0.00 0.00 0.00 0.00 0.00 0.00 0.00 0.00 0.00 0.00
0.00 0.00 0.00 0.00 0.00 0.00 0.00 0.00 0.00 0.00 0.00 0.00 0.00 0.00 0.00 0.00 0.00 0.00 0.00 0.00 0.00 0.00 0.00 0.00 0.00 0.00 0.00 0.00 0.00 0.00 0.00 0.00 0.00 0.00 0.00 0.00 0.00 0.00 0.00 0.00 0.00 0.00
0.00 0.00 0.00 0.00 0.00 0.00 0.00 0.00 0.00 0.00 0.00 0.00 0.00 0.00 0.00 0.00 0.00 0.00 0.00 0.00 0.00 0.00 0.00 0.00 0.00 0.00 0.00 0.00 0.00 0.00 0.00 0.00 0.00 0.00 0.00 0.00 0.00 0.00 0.00 0.00 0.00 0.00
0.00 0.00 0.00 0.00 0.00 0.00 0.00 0.00 0.00 0.00 0.00 0.00 0.00 0.00 0.00 0.00 0.00 0.00 0.00 0.00 0.00 0.00 0.00 0.00 0.00 0.00 0.00 0.00 0.00 0.00 0.00 0.00 0.00 0.00 0.00 0.00 0.00 0.00 0.00 0.00 0.00 0.00
0.00 0.00 0.00 0.00 0.00 0.00 0.00 0.00 0.00 0.00 0.00 0.00 0.00 0.00 0.00 0.00 0.00 0.00 0.00 0.00 0.00 0.00 0.00 0.00 0.00 0.00 0.00 0.00 0.00 0.00 0.00 0.00 0.00 0.00 0.00 0.00 0.00 0.00 0.00 0.00 0.00 0.00
0.00 0.00 0.00 0.00 0.00 0.00 0.00 0.00 0.00 0.00 0.00 0.00 0.00 0.00 0.00 0.00 0.00 0.00 0.00 0.00 0.00 0.00 0.00 0.00 0.00 0.00 0.00 0.00 0.00 0.00 0.00 0.00 0.00 0.00 0.00 0.00 0.00 0.00 0.00 0.00 0.00 0.00
0.00 0.00 0.00 0.00 0.00 0.00 0.00 0.00 0.00 0.00 0.00 0.00 0.00 0.00 0.00 0.00 0.00 0.00 0.00 0.00 0.00 0.00 0.00 0.00 0.00 0.00 0.00 0.00 0.00 0.00 0.00 0.00 0.00 0.00 0.00 0.00 0.00 0.00 0.00 0.00 0.00 0.00
0.00 0.00 0.00 0.00 0.00 0.00 0.00 0.00 0.00 0.00 0.00 0.00 0.00 0.00 0.00 0.00 0.00 0.00 0.00 0.00 0.00 0.00 0.00 0.00 0.00 0.00 0.00 0.00 0.00 0.00 0.00 0.00 0.00 0.00 0.00 0.00 0.00 0.00 0.00 0.00 0.00 0.00
0.00 0.00 0.00 0.00 0.00 0.00 0.00 0.00 0.00 0.00 0.00 0.00 0.00 0.00 0.00 0.00 0.00 0.00 0.00 0.00 0.00 0.00 0.00 0.00 0.00 0.00 0.00 0.00 0.00 0.00 0.00 0.00 0.00 0.00 0.00 0.00 0.00 0.00 0.00 0.00 0.00 0.00
MSLP
1019.91 1019.83 1019.91 1019.91 1019.99 1019.95 1019.95 1019.87 1019.79 1019.75 1019.83 1019.87 1019.99 1020.15 1020.19 1020.19 1020.03 1019.91 1019.87 1019.75 1019.63 1019.55 1019.39 1019.19 1018.99 1018.79 1018.59 1018.39 1018.19 1017.95 1017.75 1017.63 1017.43 1017.27 1017.19 1017.03 1017.03 1016.95 1016.95 1016.95 1016.83 1016.83
1020.19 1020.03 1019.99 1020.07 1020.11 1020.07 1020.03 1019.95 1019.95 1019.95 1020.07 1020.15 1020.27 1020.35 1020.35 1020.31 1020.19 1020.11 1019.99 1019.95 1019.83 1019.75 1019.59 1019.39 1019.19 1019.03 1018.79 1018.59 1018.35 1018.11 1017.95 1017.79 1017.71 1017.55 1017.43 1017.39 1017.39 1017.27 1017.27 1017.23 1017.15 1017.03
1020.47 1020.35 1020.31 1020.35 1020.35 1020.27 1020.19 1020.15 1020.15 1020.19 1020.27 1020.35 1020.43 1020.47 1020.47 1020.39 1020.39 1020.31 1020.19 1020.11 1020.07 1019.87 1019.71 1019.59 1019.35 1019.15 1018.99 1018.79 1018.55 1018.35 1018.19 1018.07 1017.99 1017.87 1017.71 1017.75 1017.71 1017.67 1017.63 1017.51 1017.39 1017.35
1020.67 1020.59 1020.55 1020.51 1020.43 1020.43 1020.35 1020.35 1020.43 1020.47 1020.51 1020.63 1020.71 1020.71 1020.67 1020.63 1020.59 1020.47 1020.43 1020.27 1020.19 1020.03 1019.91 1019.71 1019.55 1019.35 1019.15 1018.99 1018.75 1018.51 1018.39 1018.31 1018.31 1018.19 1018.07 1018.03 1018.03 1017.99 1017.95 1017.83 1017.75 1017.63
1020.83 1020.75 1020.67 1020.63 1020.59 1020.55 1020.55 1020.59 1020.71 1020.79 1020.87 1020.99 1020.99 1020.95 1020.91 1020.87 1020.75 1020.67 1020.59 1020.47 1020.39 1020.23 1020.07 1019.87 1019.67 1019.51 1019.35 1019.15 1018.95 1018.75 1018.59 1018.55 1018.51 1018.39 1018.35 1018.43 1018.39 1018.27 1018.27 1018.19 1018.07 1017.95
1020.95 1020.87 1020.79 1020.79 1020.75 1020.75 1020.83 1020.91 1021.03 1021.11 1021.15 1021.15 1021.19 1021.11 1021.11 1021.03 1020.95 1020.87 1020.79 1020.67 1020.59 1020.39 1020.19 1020.03 1019.87 1019.71 1019.55 1019.43 1019.15 1019.03 1018.91 1018.83 1018.83 1018.67 1018.63 1018.71 1018.67 1018.55 1018.47 1018.47 1018.35 1018.23
1021.11 1020.99 1021.03 1020.99 1020.99 1020.99 1021.11 1021.19 1021.19 1021.27 1021.31 1021.35 1021.31 1021.27 1021.23 1021.15 1021.11 1021.03 1020.95 1020.83 1020.75 1020.59 1020.47 1020.27 1020.11 1019.91 1019.79 1019.63 1019.39 1019.27 1019.19 1019.11 1019.07 1018.99 1018.99 1018.99 1018.91 1018.83 1018.75 1018.67 1018.63 1018.51
1021.27 1021.23 1021.23 1021.23 1021.23 1021.23 1021.27 1021.35 1021.39 1021.39 1021.39 1021.39 1021.39 1021.43 1021.39 1021.35 1021.31 1021.23 1021.11 1020.99 1020.79 1020.75 1020.59 1020.43 1020.31 1020.15 1020.03 1019.87 1019.67 1019.55 1019.47 1019.39 1019.39 1019.31 1019.27 1019.23 1019.15 1019.07 1019.03 1018.95 1018.83 1018.67
1021.43 1021.43 1021.39 1021.39 1021.39 1021.43 1021.47 1021.55 1021.59 1021.63 1021.59 1021.51 1021.55 1021.51 1021.51 1021.51 1021.51 1021.47 1021.31 1021.11 1020.95 1020.87 1020.75 1020.59 1020.51 1020.35 1020.23 1020.11 1019.99 1019.91 1019.83 1019.75 1019.71 1019.67 1019.63 1019.59 1019.47 1019.39 1019.27 1019.15 1018.99 1018.91
1021.55 1021.51 1021.47 1021.55 1021.59 1021.67 1021.71 1021.75 1021.75 1021.75 1021.71 1021.67 1021.71 1021.75 1021.75 1021.71 1021.63 1021.63 1021.47 1021.31 1021.15 1021.03 1020.95 1020.79 1020.63 1020.55 1020.39 1020.35 1020.31 1020.23 1020.15 1020.15 1020.07 1020.03 1019.95 1019.91 1019.87 1019.75 1019.59 1019.55 1019.39 1019.23
1021.67 1021.63 1021.63 1021.67 1021.75 1021.79 1021.79 1021.75 1021.75 1021.87 1021.87 1021.87 1021.91 1021.91 1021.87 1021.83 1021.75 1021.67 1021.59 1021.51 1021.43 1021.31 1021.15 1020.99 1020.91 1020.75 1020.63 1020.59 1020.55 1020.47 1020.43 1020.39 1020.35 1020.27 1020.23 1020.15 1020.15 1020.07 1019.95 1019.91 1019.75 1019.55
1021.79 1021.71 1021.71 1021.71 1021.79 1021.87 1021.87 1021.83 1021.87 1021.99 1021.99 1021.95 1021.99 1021.99 1021.91 1021.91 1021.95 1021.83 1021.75 1021.71 1021.59 1021.47 1021.31 1021.19 1020.99 1020.87 1020.83 1020.83 1020.75 1020.63 1020.55 1020.55 1020.55 1020.47 1020.43 1020.43 1020.39 1020.31 1020.19 1020.11 1019.99 1019.79
1021.79 1021.75 1021.75 1021.79 1021.83 1021.87 1021.87 1021.87 1022.03 1022.07 1022.07 1022.07 1022.07 1022.07 1021.99 1021.91 1021.95 1021.91 1021.87 1021.83 1021.71 1021.59 1021.51 1021.35 1021.15 1020.95 1020.95 1020.91 1020.87 1020.83 1020.75 1020.71 1020.67 1020.63 1020.59 1020.59 1020.59 1020.51 1020.31 1020.19 1020.07 1019.87
1021.87 1021.83 1021.83 1021.95 1021.99 1021.95 1021.91 1021.91 1022.11 1022.15 1022.15 1022.15 1022.07 1022.03 1021.99 1021.95 1022.03 1022.03 1021.95 1021.95 1021.87 1021.75 1021.63 1021.47 1021.27 1021.03 1020.99 1021.03 1020.99 1020.99 1020.87 1020.87 1020.83 1020.75 1020.67 1020.67 1020.67 1020.59 1020.43 1020.31 1020.19 1019.99
1021.95 1021.99 1022.03 1022.03 1022.03 1022.03 1022.03 1022.07 1022.11 1022.11 1022.15 1022.15 1022.15 1022.07 1022.03 1021.99 1022.07 1022.07 1021.99 1021.95 1021.95 1021.91 1021.79 1021.63 1021.47 1021.27 1020.99 1020.99 1021.03 1021.03 1020.99 1020.95 1020.95 1020.91 1020.83 1020.83 1020.79 1020.67 1020.55 1020.43 1020.31 1020.15
1022.07 1022.07 1022.11 1022.11 1022.11 1022.07 1022.15 1022.23 1022.19 1022.19 1022.11 1022.11 1022.15 1022.11 1022.11 1022.07 1022.15 1022.15 1022.07 1022.07 1022.03 1021.99 1021.91 1021.79 1021.67 1021.39 1021.15 1020.99 1021.03 1021.15 1021.11 1021.03 1020.99 1020.95 1020.95 1020.95 1020.91 1020.79 1020.71 1020.55 1020.47 1020.31
1022.11 1022.15 1022.19 1022.19 1022.23 1022.15 1022.15 1022.23 1022.31 1022.23 1022.19 1022.15 1022.15 1022.11 1022.07 1022.07 1022.15 1022.19 1022.15 1022.11 1022.07 1022.07 1022.03 1021.95 1021.79 1021.51 1021.43 1021.31 1021.15 1021.11 1021.15 1021.07 1020.99 1020.99 1021.03 1020.99 1020.99 1020.99 1020.91 1020.75 1020.55 1020.43
1022.11 1022.23 1022.27 1022.31 1022.31 1022.27 1022.31 1022.35 1022.39 1022.35 1022.31 1022.23 1022.19 1022.15 1022.15 1022.15 1022.15 1022.23 1022.23 1022.19 1022.11 1022.07 1022.03 1022.03 1021.95 1021.67 1021.63 1021.47 1021.39 1021.27 1021.19 1021.23 1021.15 1021.03 1021.07 1021.07 1021.07 1020.99 1020.95 1020.95 1020.75 1020.55
1022.19 1022.23 1022.31 1022.35 1022.39 1022.39 1022.39 1022.43 1022.43 1022.39 1022.35 1022.27 1022.23 1022.27 1022.23 1022.19 1022.19 1022.19 1022.19 1022.27 1022.23 1022.15 1022.07 1022.07 1022.03 1021.83 1021.75 1021.67 1021.55 1021.47 1021.35 1021.31 1021.23 1021.15 1021.07 1021.15 1021.15 1021.11 1021.07 1021.03 1020.99 1020.79
1022.27 1022.35 1022.35 1022.39 1022.43 1022.47 1022.47 1022.47 1022.51 1022.47 1022.47 1022.39 1022.31 1022.27 1022.23 1022.23 1022.19 1022.15 1022.19 1022.23 1022.23 1022.23 1022.19 1022.11 1022.03 1021.91 1021.91 1021.83 1021.75 1021.63 1021.51 1021.47 1021.43 1021.35 1021.27 1021.23 1021.23 1021.19 1021.11 1021.07 1021.03 1020.91
1022.35 1022.35 1022.35 1022.43 1022.47 1022.55 1022.55 1022.55 1022.55 1022.51 1022.47 1022.47 1022.39 1022.35 1022.31 1022.23 1022.19 1022.15 1022.11 1022.15 1022.15 1022.19 1022.19 1022.11 1022.03 1021.91 1021.91 1021.87 1021.83 1021.75 1021.67 1021.55 1021.55 1021.43 1021.39 1021.27 1021.31 1021.35 1021.27 1021.23 1020.99 1020.87
1022.31 1022.35 1022.47 1022.55 1022.63 1022.63 1022.63 1022.59 1022.55 1022.55 1022.47 1022.47 1022.43 1022.39 1022.31 1022.27 1022.19 1022.19 1022.11 1022.07 1022.07 1022.15 1022.19 1022.11 1021.95 1021.87 1021.83 1021.83 1021.87 1021.83 1021.71 1021.67 1021.63 1021.51 1021.47 1021.39 1021.35 1021.35 1021.27 1021.15 1020.95 1020.75
1022.43 1022.43 1022.51 1022.59 1022.63 1022.63 1022.63 1022.63 1022.59 1022.55 1022.47 1022.47 1022.39 1022.31 1022.23 1022.15 1022.07 1022.07 1022.03 1022.03 1021.99 1022.03 1022.11 1022.03 1021.95 1021.83 1021.79 1021.79 1021.79 1021.87 1021.79 1021.75 1021.67 1021.63 1021.59 1021.59 1021.59 1021.51 1021.35 1021.11 1020.91 1020.59
1022.59 1022.59 1022.55 1022.59 1022.63 1022.63 1022.63 1022.63 1022.63 1022.59 1022.47 1022.47 1022.43 1022.35 1022.23 1022.15 1022.19 1022.03 1021.95 1022.03 1021.95 1021.91 1021.99 1021.95 1021.87 1021.75 1021.71 1021.75 1021.71 1021.75 1021.87 1021.83 1021.83 1021.79 1021.71 1021.79 1021.59 1021.43 1021.27 1021.07 1020.91 1020.63
1022.55 1022.55 1022.59 1022.59 1022.55 1022.55 1022.55 1022.51 1022.47 1022.47 1022.39 1022.39 1022.35 1022.35 1022.27 1022.23 1022.19 1022.11 1021.91 1021.83 1021.87 1021.83 1021.79 1021.83 1021.79 1021.67 1021.63 1021.63 1021.63 1021.67 1021.71 1021.83 1021.83 1021.79 1021.71 1021.75 1021.67 1021.39 1021.15 1021.11 1020.95 1020.75
1022.51 1022.51 1022.51 1022.51 1022.51 1022.47 1022.47 1022.43 1022.43 1022.39 1022.31 1022.31 1022.23 1022.31 1022.23 1022.15 1022.11 1022.11 1021.99 1021.75 1021.75 1021.75 1021.71 1021.63 1021.63 1021.59 1021.55 1021.55 1021.55 1021.55 1021.59 1021.67 1021.75 1021.75 1021.83 1021.75 1021.63 1021.47 1021.15 1020.99 1020.95 1020.75
Thickness
5676 5675 5673 5672 5670 5670 5668 5667 5666 5665 5663 5660 5658 5655 5653 5651 5650 5650 5648 5648 5648 5649 5649 5649 5650 5650 5651 5652 5652 5653 5654 5655 5657 5658 5660 5660 5660 5661 5662 5662 5663 5664
5671 5670 5669 5668 5666 5665 5664 5663 5662 5660 5657 5655 5652 5649 5647 5645 5645 5644 5643 5643 5642 5643 5643 5643 5643 5644 5645 5645 5646 5647 5647 5649 5650 5651 5653 5653 5654 5654 5655 5655 5656 5657
5666 5665 5664 5662 5662 5661 5659 5658 5657 5655 5652 5649 5647 5644 5642 5640 5639 5638 5637 5637 5637 5636 5637 5637 5637 5637 5638 5639 5640 5641 5641 5641 5642 5643 5645 5646 5646 5647 5648 5648 5649 5651
5662 5661 5659 5658 5657 5656 5655 5653 5650 5648 5646 5643 5641 5638 5636 5634 5633 5632 5631 5631 5630 5630 5631 5631 5631 5631 5631 5632 5634 5634 5635 5635 5635 5636 5637 5638 5638 5639 5640 5641 5642 5644
5658 5657 5656 5654 5653 5651 5649 5647 5643 5640 5638 5635 5634 5631 5629 5627 5626 5626 5625 5624 5624 5624 5625 5625 5625 5626 5625 5625 5627 5628 5629 5629 5628 5629 5629 5629 5630 5631 5632 5633 5635 5637
5654 5653 5652 5650 5649 5646 5643 5640 5637 5634 5631 5629 5627 5625 5623 5622 5620 5620 5619 5618 5618 5617 5618 5619 5619 5620 5620 5619 5621 5621 5621 5621 5621 5622 5622 5622 5622 5624 5625 5626 5627 5630
5650 5648 5648 5645 5643 5641 5637 5634 5631 5628 5626 5624 5622 5619 5617 5616 5615 5614 5612 5612 5612 5612 5612 5612 5611 5612 5613 5613 5614 5614 5614 5614 5614 5615 5615 5614 5616 5616 5617 5618 5620 5622
5646 5643 5642 5640 5637 5635 5631 5629 5625 5623 5621 5619 5616 5614 5612 5610 5609 5607 5606 5606 5606 5605 5605 5605 5605 5605 5605 5606 5607 5607 5607 5607 5607 5607 5607 5607 5608 5609 5610 5611 5613 5615
5640 5638 5636 5634 5632 5629 5626 5623 5620 5618 5616 5614 5611 5608 5606 5605 5602 5601 5600 5600 5600 5599 5599 5599 5598 5598 5598 5599 5599 5599 5599 5599 5600 5600 5600 5600 5600 5601 5603 5605 5606 5609
5635 5633 5631 5629 5627 5624 5621 5618 5615 5613 5610 5608 5605 5603 5601 5599 5597 5595 5595 5595 5594 5593 5593 5593 5592 5592 5591 5591 5591 5591 5591 5592 5592 5593 5593 5593 5593 5593 5595 5597 5599 5601
5631 5629 5627 5625 5623 5620 5616 5614 5611 5608 5605 5603 5600 5598 5596 5594 5593 5592 5590 5590 5589 5588 5588 5588 5587 5587 5586 5585 5585 5585 5585 5585 5585 5585 5586 5586 5586 5587 5588 5589 5592 5594
5627 5625 5624 5621 5618 5615 5612 5609 5606 5603 5600 5598 5596 5594 5592 5590 5589 5588 5587 5585 5585 5584 5584 5583 5583 5582 5582 5581 5580 5580 5580 5580 5579 5580 5580 5580 5580 5581 5582 5583 5585 5587
5624 5622 5619 5617 5614 5610 5608 5605 5602 5599 5597 5595 5593 5591 5588 5587 5585 5583 5582 5581 5580 5580 5579 5579 5579 5578 5577 5577 5576 5576 5576 5575 5575 5574 5575 5575 5575 5576 5577 5578 5580 5582
5620 5618 5615 5613 5609 5607 5604 5602 5598 5596 5594 5592 5590 5588 5586 5584 5582 5580 5579 5577 5576 5576 5575 5575 5575 5574 5574 5573 5572 5572 5572 5571 5570 5570 5571 5571 5571 5571 5573 5573 5574 5577
5617 5614 5612 5609 5606 5604 5601 5599 5596 5594 5592 5590 5588 5586 5584 5582 5580 5577 5576 5574 5572 5572 5571 5570 5571 5570 5571 5571 5569 5569 5568 5567 5567 5567 5567 5567 5567 5567 5568 5569 5570 5572
5614 5611 5609 5606 5604 5601 5599 5596 5594 5592 5590 5588 5586 5584 5582 5580 5577 5575 5573 5571 5569 5568 5567 5567 5566 5567 5567 5567 5566 5565 5564 5564 5563 5563 5563 5562 5563 5564 5564 5565 5566 5567
5612 5609 5606 5604 5602 5599 5597 5594 5592 5590 5588 5586 5584 5582 5580 5578 5575 5573 5570 5568 5567 5565 5563 5563 5562 5562 5563 5562 5562 5562 5561 5561 5560 5560 5560 5559 5559 5559 5560 5560 5562 5563
5610 5607 5605 5602 5600 5597 5595 5592 5590 5588 5586 5584 5583 5580 5579 5576 5574 5571 5569 5566 5565 5563 5561 5560 5559 5559 5559 5558 5559 5559 5558 5558 5557 5556 5556 5556 5555 5556 5555 5556 5557 5559
5609 5606 5603 5601 5598 5596 5593 5591 5588 5587 5585 5583 5581 5579 5577 5575 5573 5571 5568 5566 5564 5562 5560 5558 5557 5556 5556 5555 5555 5555 5555 5555 5553 5553 5553 5552 5552 5552 5552 5552 5553 5554
5607 5605 5602 5600 5597 5595 5592 5590 5588 5586 5584 5582 5580 5579 5576 5575 5572 5570 5568 5565 5562 5560 5558 5557 5556 5554 5553 5552 5552 5552 5552 5551 5550 5550 5549 5549 5549 5549 5549 5549 5549 5550
5606 5603 5601 5598 5596 5593 5591 5589 5587 5585 5583 5581 5579 5577 5575 5573 5571 5569 5566 5564 5561 5559 5557 5555 5554 5553 5551 5550 5549 5549 5549 5548 5548 5547 5546 5546 5545 5545 5545 5546 5546 5547
5605 5603 5600 5597 5595 5593 5591 5589 5586 5585 5582 5580 5579 5576 5574 5573 5571 5568 5566 5564 5561 5558 5555 5553 5552 5552 5550 5549 5548 5546 5546 5545 5544 5544 5544 5543 5543 5542 5542 5543 5544 5545
5604 5602 5599 5597 5594 5592 5590 5588 5586 5583 5582 5580 5578 5576 5574 5572 5570 5568 5565 5562 5560 5557 5554 5552 5551 5550 5548 5547 5546 5544 5543 5542 5542 5541 5541 5540 5540 5539 5539 5540 5541 5543
5603 5601 5599 5597 5594 5592 5589 5587 5585 5583 5581 5579 5577 5575 5574 5571 5569 5567 5565 5562 5559 5556 5554 5552 5550 5549 5547 5546 5544 5543 5542 5540 5539 5538 5537 5537 5537 5537 5537 5537 5538 5540
5603 5600 5598 5596 5594 5591 5589 5587 5585 5582 5580 5578 5576 5574 5572 5570 5568 5565 5564 5562 5559 5556 5554 5551 5549 5548 5546 5544 5543 5542 5540 5538 5537 5536 5535 5534 5534 5535 5535 5535 5536 5537
5602 5600 5598 5596 5594 5591 5589 5586 5584 5582 5580 5578 5576 5574 5571 5570 5568 5565 5563 5561 5558 5556 5554 5552 5549 5548 5546 5544 5542 5541 5539 5537 5535 5534 5533 5532 5532 5532 5532 5533 5533 5534